Champaign, IL

5:22 AM CDT on September 25, 2017 (GMT -0500)
Univ Of Illinois-Willard

Weather History for KCMI - August, 2014

Change the Weather History Date:

Thursday, August 21, 2014

  Actual Average Record
Temperature  
Mean Temperature 79 °F 72 °F  
Max Temperature 88 °F 83 °F 93 °F (2003)
Min Temperature 70 °F 61 °F 48 °F (2004)
Degree Days  
Heating Degree Days 0 0  
Month to date heating degree days 2 0  
Since 1 June heating degree days 9 19  
Since 1 July heating degree days 9 2  
Cooling Degree Days 14 7  
Month to date cooling degree days 132 164  
Year to date cooling degree days 724 761  
Since 1 June cooling degree days 572 669  
Growing Degree Days 28 (Base 50)    
Moisture  
Dew Point 73 °F    
Average Humidity 84    
Maximum Humidity 100    
Minimum Humidity 68    
Precipitation  
Precipitation 0.07 in 0.14 in 0.40 in (2010)
Month to date precipitation 0.74 2.21  
Year to date precipitation 27.60 25.88  
Sea Level Pressure  
Sea Level Pressure 29.96 in    
Wind  
Wind Speed 9 mph (SSW)    
Max Wind Speed 28 mph    
Max Gust Speed 36 mph    
Visibility 9 miles    
Events Rain , Thunderstorm    
T = Trace of Precipitation, MM = Missing Value Source: NWS Daily Summary

Daily Weather History Graph

Daily Weather History Graph

Search for Another Location

Airport or City:

Trip Planner

Search our weather history database for the weather conditions in past years. The results will help you decide how hot, cold, wet, or windy it might be!

Date:

Astronomy

Aug. 21, 2014 Rise Set
Actual Time 6:10 AM CDT 7:41 PM CDT
Civil Twilight 5:41 AM CDT 8:09 PM CDT
Nautical Twilight 5:07 AM CDT 8:44 PM CDT
Astronomical Twilight 4:30 AM CDT 9:20 PM CDT
Moon 2:40 AM CDT (8/21) 5:09 PM CDT (8/21)
Length of Visible Light 14h 27m
Length of Day
13h 30m
Waning Crescent, 13% of the Moon is Illuminated
Aug 21
Waning Crescent
Aug 25
New
Sep 2
First Quarter
Sep 8
Full
Sep 15
Last Quarter

Hourly Weather History & Observations

Time (CDT) Temp. Heat Index Dew Point Humidity Pressure Visibility Wind Dir Wind Speed Gust Speed Precip Events Conditions
12:53 AM 72.0 °F - 68.0 °F 87% 29.97 in 10.0 mi South 8.1 mph - N/A   Clear
1:53 AM 72.0 °F - 68.0 °F 87% 29.96 in 10.0 mi SSW 8.1 mph - N/A   Mostly Cloudy
2:39 AM 72.0 °F - 69.1 °F 91% 29.96 in 5.0 mi SSW 18.4 mph 34.5 mph 0.02 in Rain , Thunderstorm Light Thunderstorms and Rain
2:48 AM 75.2 °F - 71.6 °F 89% 29.96 in 2.5 mi SSW 11.5 mph 35.7 mph 0.07 in Rain , Thunderstorm Light Rain
2:53 AM 73.9 °F - 69.1 °F 85% 29.94 in 9.0 mi SSW 8.1 mph - 0.07 in Rain Light Rain
3:53 AM 70.0 °F - 68.0 °F 93% 29.95 in 10.0 mi South 3.5 mph - 0.00 in   Scattered Clouds
4:53 AM 71.1 °F - 69.1 °F 93% 29.94 in 10.0 mi South 5.8 mph - N/A   Overcast
5:53 AM 72.0 °F - 71.1 °F 97% 29.94 in 10.0 mi SSW 8.1 mph - N/A   Scattered Clouds
6:53 AM 73.0 °F - 71.1 °F 93% 29.95 in 8.0 mi SSW 6.9 mph - N/A   Scattered Clouds
7:53 AM 73.9 °F - 72.0 °F 93% 29.98 in 9.0 mi WSW 6.9 mph - N/A   Clear
8:53 AM 77.0 °F - 73.0 °F 88% 29.99 in 10.0 mi SW 6.9 mph - N/A   Scattered Clouds
9:53 AM 81.0 °F 86.2 °F 73.9 °F 79% 29.99 in 10.0 mi SW 10.4 mph - N/A   Clear
10:53 AM 82.0 °F 87.9 °F 73.9 °F 76% 30.00 in 10.0 mi SW 9.2 mph - N/A   Clear
11:53 AM 82.9 °F 89.4 °F 73.9 °F 74% 29.99 in 10.0 mi WSW 10.4 mph - N/A   Clear
12:53 PM 84.9 °F 93.3 °F 75.0 °F 72% 29.98 in 10.0 mi SW 9.2 mph - N/A   Clear
1:53 PM 86.0 °F 96.0 °F 75.9 °F 72% 29.97 in 10.0 mi SSW 9.2 mph - N/A   Clear
2:53 PM 87.1 °F 97.3 °F 75.9 °F 69% 29.95 in 10.0 mi SSW 12.7 mph - N/A   Clear
3:53 PM 87.1 °F 97.3 °F 75.9 °F 69% 29.94 in 10.0 mi SSW 10.4 mph - N/A   Scattered Clouds
4:53 PM 87.1 °F 97.3 °F 75.9 °F 69% 29.94 in 10.0 mi SW 13.8 mph - N/A   Partly Cloudy
5:53 PM 84.9 °F 94.1 °F 75.9 °F 74% 29.93 in 10.0 mi SW 8.1 mph - N/A   Mostly Cloudy
6:53 PM 84.0 °F 93.7 °F 77.0 °F 79% 29.93 in 10.0 mi SSW 8.1 mph - N/A   Scattered Clouds
7:53 PM 80.1 °F 85.8 °F 77.0 °F 90% 29.94 in 9.0 mi SSW 5.8 mph - N/A   Partly Cloudy
8:53 PM 77.0 °F - 75.0 °F 94% 29.94 in 8.0 mi South 5.8 mph - N/A   Clear
10:53 PM 77.0 °F - 75.0 °F 94% 29.95 in 9.0 mi South 8.1 mph - N/A   Clear
11:53 PM 78.1 °F - 75.0 °F 90% 29.95 in 10.0 mi SSW 10.4 mph - N/A   Clear